一网星座-0281星 (ONEWEB-0281 )

导读 | 星芒AI

ONEWEB-0281 是 OneWeb 卫星通信公司发射的低轨通信卫星之一,属于其全球宽带互联网星座计划的一部分。该卫星运行在约 1200 公里的太阳同步轨道上,旨在为全球用户提供高速、低延迟的互联网服务,尤其关注航空、航海及偏远地区用户。ONEWEB-0281 采用模块化设计,具备高容量通信能力,支持 Ku 波段和 Ka 波段传输,是 OneWeb 扩展其全球覆盖、实现数字包容性目标的重要组成部分。

基本信息
目录编号:
48999
目录名称:
ONEWEB-0281
国际标识:
2021-060AJ
轨道中心:
EARTH
卫星名称:
一网星座-0281星
卫星全名:
一网星座-0281星 (ONEWEB-0281 )
卫星状态:
在轨 (已飞行1582 天)
发射日期:
2021-07-01 UTC
国别 :
英国 (GB)
星等 :
--
轨道信息
数据来源 国际轨道数据 AOE轨道数据
星历时间 2025-10-30T06:44:29+0800
6小时前
查看轨道信息
2025-10-29T04:00:00+0800
1天前
查看轨道信息
半长轴 7575.901km 7575.894km
偏心率 0.0001809 0.0001813
轨道倾角 87.899° 87.900°
近地点辐角 85.079° 78.718°
升交点赤经 274.632° 274.855°
平近点角 275.055° 43.329°
近地点 1196.395km 1196.385km
远地点 1199.137km 1199.133km
周期 109.373分钟 109.373分钟
每日圈数 13.165926 13.165944
详细信息
平衡模式:
三轴稳定
覆盖范围:
全球
运营商:
一网卫星公司
运营商所在国:
英国
制造商(研发单位):
一网卫星公司
制造商所在国:
英国
使用方式:
暂无
卫星简介
OneWeb卫星网络由648颗重约125公斤的微型卫星组成,运行在1200公里的轨道上。 每颗卫星都能够提供至少每秒8千兆位的吞吐量,以使用其高吞吐量的Ku频段有效载荷为家庭和移动平台提供互联网接入。该卫星仍在工作。
2D轨道图
3D轨道图
轨道高度分析图
轨道倾角分析图
轨道综合分析图
查看轨道综合分析图